CW1575 Weather Reports


Display with metric or nautical units.
time (UTC)temp
F
wind
direction
speed
MPH
gust
MPH
rain 1hr
in
rain 24hr
in
rain mn
in
humidity
%
barometer
mb
20150503114509 47 134 1.0 2.0 0.00 0.00 0.00 72 1006.7
20150503113510 47 134 0.0 2.0 0.00 0.00 0.00 72 1006.8
20150503112509 47 134 0.0 2.0 0.00 0.00 0.00 72 1006.9
20150503111510 47 134 1.0 2.0 0.00 0.00 0.00 72 1007.0
20150503110510 46 134 2.0 3.0 0.00 0.00 0.00 72 1007.1
20150503105511 46 0 0.0 3.0 0.00 0.00 0.00 73 1007.1
20150503104510 46 45 1.0 2.0 0.00 0.00 0.00 73 1007.0
20150503103510 46 51 0.0 2.0 0.00 0.00 0.00 73 1007.1
20150503102509 46 52 1.0 2.0 0.00 0.00 0.00 73 1007.0
20150503101510 46 51 0.0 3.0 0.00 0.00 0.00 72 1006.8
20150503100510 46 44 1.0 2.0 0.00 0.00 0.00 72 1006.9
20150503095511 46 43 0.0 3.0 0.00 0.00 0.00 72 1007.0
20150503094510 46 188 1.0 2.0 0.00 0.00 0.00 74 1006.9
20150503093509 46 188 1.0 5.0 0.00 0.00 0.00 75 1006.7
20150503092509 47 223 1.0 3.0 0.00 0.00 0.00 75 1006.8
20150503091509 47 224 2.0 3.0 0.00 0.00 0.00 74 1006.9
20150503090510 47 249 1.0 3.0 0.00 0.00 0.00 73 1006.9
20150503085509 47 210 1.0 3.0 0.00 0.00 0.00 72 1006.9
20150503084510 48 292 2.0 3.0 0.00 0.00 0.00 71 1006.9
20150503083510 48 295 0.0 2.0 0.00 0.00 0.00 71 1007.1
20150503082509 48 295 1.0 2.0 0.00 0.00 0.00 71 1007.1
20150503081509 48 295 2.0 3.0 0.00 0.00 0.00 70 1007.1
20150503080509 49 276 1.0 3.0 0.00 0.00 0.00 69 1007.1
20150503075509 49 158 0.0 3.0 0.00 0.00 0.00 68 1007.3
20150503074509 50 192 0.0 2.0 0.00 0.00 0.00 67 1007.5
20150503073509 50 192 0.0 1.0 0.00 0.00 0.00 67 1007.6
20150503072509 50 192 0.0 2.0 0.00 0.00 0.00 65 1007.7
20150503071509 51 192 1.0 2.0 0.00 0.00 0.00 65 1007.9
20150503070509 51 192 1.0 2.0 0.00 0.00 0.00 65 1007.9
20150503065507 51 192 1.0 3.0 0.00 0.00 0.00 65 1007.8
20150503064507 51 217 1.0 3.0 0.00 0.00 0.00 64 1007.9
20150503063506 52 159 1.0 5.0 0.00 0.00 0.00 64 1007.9
20150503062506 52 190 1.0 2.0 0.00 0.00 0.00 63 1007.9
20150503061506 52 190 1.0 3.0 0.00 0.00 0.00 64 1008.2
20150503060507 53 203 2.0 3.0 0.00 0.00 0.00 63 1008.2
20150503055506 53 182 1.0 3.0 0.00 0.00 0.00 62 1008.4
20150503054507 54 179 1.0 2.0 0.00 0.00 0.00 61 1008.5
20150503053506 54 179 1.0 2.0 0.00 0.00 0.00 61 1008.7
20150503052507 54 179 0.0 1.0 0.00 0.00 0.00 60 1008.7
20150503051506 54 179 0.0 1.0 0.00 0.00 0.00 60 1008.7
20150503050506 55 179 1.0 3.0 0.00 0.00 0.00 60 1008.6
20150503045510 55 179 1.0 3.0 0.00 0.00 0.00 60 1008.7
20150503044506 55 158 1.0 6.0 0.00 0.00 0.00 60 1008.8
20150503042507 55 154 2.0 5.0 0.00 0.00 0.00 59 1008.7
20150503041507 55 156 2.0 3.0 0.00 0.00 0.00 59 1008.7
20150503040507 55 184 1.0 2.0 0.00 0.00 0.00 59 1008.9
20150503035506 56 185 0.0 1.0 0.00 0.00 0.00 57 1008.9
20150503034507 56 185 0.0 1.0 0.00 0.00 0.00 58 1009.1
20150503033506 57 185 0.0 1.0 0.00 0.00 0.00 56 1009.2
20150503032508 57 185 1.0 3.0 0.00 0.00 0.00 54 1009.1
20150503031507 58 277 1.0 2.0 0.00 0.00 0.00 52 1009.1
20150503030508 58 277 0.0 3.0 0.00 0.00 0.00 51 1008.9
20150503025507 58 5 0.0 2.0 0.00 0.00 0.00 50 1008.8
20150503024507 59 5 3.0 6.0 0.00 0.00 0.00 50 1008.9
20150503023507 59 39 0.0 2.0 0.00 0.00 0.00 48 1008.7
20150503022506 60 48 1.0 2.0 0.00 0.00 0.00 48 1008.4
20150503021507 60 38 1.0 3.0 0.00 0.00 0.00 47 1008.3
20150503020507 61 33 2.0 5.0 0.00 0.00 0.00 47 1008.1
20150503015509 61 46 3.0 7.0 0.00 0.00 0.00 46 1008.0
20150503014506 62 60 2.0 9.0 0.00 0.00 0.00 44 1008.0
20150503013507 63 28 3.0 13.0 0.00 0.00 0.00 44 1007.9
20150503012508 64 24 7.0 15.0 0.00 0.00 0.00 42 1008.0
20150503011506 65 30 6.0 13.0 0.00 0.00 0.00 40 1007.9
20150503010508 66 42 6.0 15.0 0.00 0.00 0.00 38 1007.8
20150503005513 67 29 6.0 14.0 0.00 0.00 0.00 33 1007.7
20150503004507 68 38 8.0 15.0 0.00 0.00 0.00 31 1007.5
20150503003516 69 20 4.0 10.0 0.00 0.00 0.00 32 1007.4
20150503002516 69 26 5.0 10.0 0.00 0.00 0.00 31 1007.3
20150503001516 70 342 3.0 8.0 0.00 0.00 0.00 30 1007.2
20150503000509 70 15 3.0 8.0 0.00 0.00 0.00 32 1007.1
20150502235510 70 347 1.0 6.0 0.00 0.00 0.00 34 1007.0
20150502234510 70 11 4.0 8.0 0.00 0.00 0.00 32 1007.0
20150502233507 70 355 2.0 3.0 0.00 0.00 0.00 33 1006.9
20150502232507 70 338 2.0 8.0 0.00 0.00 0.00 33 1006.7
20150502231507 70 311 2.0 3.0 0.00 0.00 0.00 35 1006.6
20150502230508 70 236 1.0 6.0 0.00 0.00 0.00 34 1006.7
20150502225507 70 218 3.0 7.0 0.00 0.00 0.00 32 1006.8
20150502224510 70 272 2.0 7.0 0.00 0.00 0.00 32 1006.7
20150502223521 69 270 3.0 12.0 0.00 0.00 0.00 34 1007.0
20150502222507 69 259 6.0 14.0 0.00 0.00 0.00 33 1007.2
20150502221508 69 283 5.0 14.0 0.00 0.00 0.00 33 1007.3
20150502220507 69 296 6.0 14.0 0.00 0.00 0.00 33 1007.8
20150502215507 69 289 6.0 16.0 0.00 0.00 0.00 34 1007.8
20150502214506 70 313 8.0 17.0 0.00 0.00 0.00 33 1007.8
20150502213508 71 293 5.0 12.0 0.00 0.00 0.00 33 1007.9
20150502212507 71 327 6.0 12.0 0.00 0.00 0.00 33 1007.7
20150502211507 73 324 8.0 18.0 0.00 0.00 0.00 32 1007.8
20150502210507 76 287 8.0 15.0 0.00 0.00 0.00 26 1007.8
20150502205507 76 220 1.0 3.0 0.00 0.00 0.00 26 1007.4
20150502204507 77 229 3.0 5.0 0.00 0.00 0.00 24 1007.2
20150502203507 76 162 2.0 7.0 0.00 0.00 0.00 23 1007.1
20150502202516 77 123 4.0 8.0 0.00 0.00 0.00 24 1007.1
20150502201507 77 154 5.0 8.0 0.00 0.00 0.00 24 1007.4
20150502200508 77 120 4.0 9.0 0.00 0.01 0.00 23 1007.4
20150502195507 78 166 3.0 8.0 0.00 0.01 0.00 22 1007.7
20150502194508 78 135 3.0 6.0 0.00 0.01 0.00 23 1007.8
20150502193507 78 92 5.0 10.0 0.00 0.01 0.00 25 1008.1
20150502192507 78 112 2.0 7.0 0.00 0.01 0.00 26 1008.3
20150502191508 77 204 2.0 8.0 0.00 0.01 0.00 24 1008.4
20150502190507 77 121 1.0 5.0 0.00 0.01 0.00 25 1008.8
20150502185507 77 155 3.0 7.0 0.00 0.01 0.00 26 1009.0
20150502184507 76 182 2.0 6.0 0.00 0.01 0.00 27 1009.3
20150502183507 76 119 2.0 8.0 0.00 0.01 0.00 26 1009.5
20150502182507 75 155 3.0 7.0 0.00 0.01 0.00 28 1009.5
20150502181507 75 149 2.0 7.0 0.00 0.01 0.00 28 1009.6
20150502180507 74 139 2.0 6.0 0.00 0.01 0.00 28 1009.7
20150502175508 73 150 3.0 6.0 0.00 0.01 0.00 29 1009.9
20150502174520 72 123 2.0 7.0 0.00 0.01 0.00 30 1010.2
20150502173508 71 188 2.0 7.0 0.00 0.01 0.00 33 1010.3
20150502172507 70 155 2.0 5.0 0.00 0.01 0.00 33 1010.4
20150502171509 69 170 3.0 7.0 0.00 0.01 0.00 34 1010.4
20150502170516 69 182 2.0 5.0 0.00 0.01 0.00 37 1010.5
20150502165507 68 168 2.0 6.0 0.00 0.01 0.00 37 1010.6
20150502164508 68 111 1.0 3.0 0.00 0.01 0.00 39 1010.8
20150502163507 67 133 1.0 3.0 0.00 0.01 0.00 37 1010.7
20150502162507 67 180 3.0 6.0 0.00 0.01 0.00 39 1010.7
20150502161507 67 120 1.0 6.0 0.00 0.01 0.00 39 1011.1
20150502160507 67 126 1.0 3.0 0.00 0.01 0.00 40 1011.0
20150502155507 66 135 1.0 5.0 0.00 0.01 0.00 40 1011.1
20150502154507 66 144 1.0 6.0 0.00 0.01 0.00 44 1011.1
20150502153507 65 157 0.0 3.0 0.00 0.01 0.00 44 1011.2
20150502152507 65 106 2.0 6.0 0.00 0.01 0.00 43 1011.2
20150502151507 64 133 1.0 3.0 0.00 0.01 0.00 43 1011.3
20150502150507 63 162 3.0 6.0 0.00 0.01 0.00 48 1011.3
20150502145506 61 114 2.0 3.0 0.00 0.01 0.00 47 1011.3
20150502144507 60 133 2.0 3.0 0.00 0.01 0.00 53 1011.4
20150502143507 59 175 2.0 3.0 0.00 0.01 0.00 55 1011.4
20150502142507 58 180 2.0 3.0 0.00 0.01 0.00 57 1011.4
20150502141507 56 130 2.0 3.0 0.00 0.01 0.00 59 1011.4
20150502140508 54 123 2.0 3.0 0.00 0.01 0.00 62 1011.5
20150502135507 52 150 1.0 3.0 0.00 0.01 0.00 67 1011.5
20150502134506 50 117 2.0 3.0 0.00 0.01 0.00 73 1011.7
20150502133506 49 98 1.0 3.0 0.00 0.01 0.00 79 1011.8
20150502131507 46 169 1.0 2.0 0.00 0.01 0.00 86 1011.7
20150502130508 45 168 1.0 2.0 0.00 0.01 0.00 87 1011.8
20150502125507 45 154 1.0 3.0 0.00 0.01 0.00 85 1011.5
20150502124507 44 291 1.0 2.0 0.00 0.01 0.00 85 1011.4
20150502123506 44 291 0.0 2.0 0.00 0.01 0.00 84 1011.3
20150502122506 44 291 0.0 2.0 0.00 0.01 0.00 83 1011.2
20150502121508 44 291 1.0 2.0 0.00 0.01 0.00 83 1011.0
20150502120507 45 291 1.0 2.0 0.00 0.01 0.00 82 1011.1
20150502115506 45 291 1.0 2.0 0.00 0.01 0.00 82 1011.0